DW1458 Weather Reports


Display with metric or nautical units.
time (UTC)temp
F
wind
direction
speed
MPH
gust
MPH
rain 1hr
in
rain 24hr
in
rain mn
in
humidity
%
barometer
mb
20260505221503 76 91 2.0 6.0 0.00 0.00 0.00 73 1013.9
20260505220010 76 44 2.0 7.0 0.00 0.00 0.00 71 1013.9
20260505213002 78 179 2.0 9.0 0.00 0.00 0.00 71 1014.2
20260505211503 78 115 2.0 6.0 0.00 0.00 0.00 70 1014.2
20260505210009 77 49 1.0 6.0 0.00 0.00 0.00 68 1014.3
20260505204517 78 141 2.0 6.0 0.00 0.00 0.00 67 1014.4
20260505201504 77 57 1.0 7.0 0.00 0.00 0.00 67 1014.6
20260505200012 78 70 1.0 6.0 0.00 0.00 0.00 68 1014.7
20260505194508 79 80 2.0 7.0 0.00 0.00 0.00 65 1014.9
20260505180020 78 40 2.0 7.0 0.00 0.00 0.00 68 1015.6
20260505164522 76 37 2.0 7.0 0.00 0.00 0.00 67 1015.6
20260505124517 58 199 0.0 1.0 0.00 0.00 0.00 95 1015.5
20260505120027 53 25 0.0 0.0 0.00 0.00 0.00 94 1015.0
20260505113025 52 239 0.0 0.0 0.00 0.00 0.00 93 1014.5
20260505111521 51 222 0.0 2.0 0.00 0.00 0.00 93 1014.3
20260505101508 52 131 0.0 0.0 0.00 0.00 0.00 93 1014.2
20260505100006 52 131 0.0 0.0 0.00 0.00 0.00 93 1014.3
20260505094518 52 131 0.0 0.0 0.00 0.00 0.00 93 1014.1
20260505093014 52 131 0.0 0.0 0.00 0.00 0.00 93 1014.2
20260505091517 52 131 0.0 0.0 0.00 0.00 0.00 93 1014.1
20260505090008 52 131 0.0 0.0 0.00 0.00 0.00 93 1014.0
20260505084508 52 131 0.0 0.0 0.00 0.00 0.00 92 1013.9
20260505083014 52 131 0.0 0.0 0.00 0.00 0.00 92 1013.8
20260505081515 52 131 0.0 0.0 0.00 0.00 0.00 92 1013.8
20260505080022 52 131 0.0 0.0 0.00 0.00 0.00 92 1013.8
20260505074507 52 131 0.0 0.0 0.00 0.00 0.00 92 1014.1
20260505073010 53 131 0.0 0.0 0.00 0.00 0.00 92 1014.0
20260505071513 53 131 0.0 0.0 0.00 0.00 0.00 92 1014.0
20260505070029 53 131 0.0 0.0 0.00 0.00 0.00 92 1014.2
20260505064524 53 131 0.0 0.0 0.00 0.00 0.00 91 1014.3
20260505063009 54 131 0.0 0.0 0.00 0.00 0.00 92 1014.6
20260505061520 54 131 0.0 0.0 0.00 0.00 0.00 91 1014.9
20260505060018 54 131 0.0 0.0 0.00 0.00 0.00 91 1015.0
20260505054525 54 131 0.0 0.0 0.00 0.00 0.00 91 1014.9
20260505053029 55 131 0.0 0.0 0.00 0.00 0.00 91 1015.3
20260505051520 55 131 0.0 0.0 0.00 0.00 0.00 90 1015.4
20260505041537 56 131 0.0 0.0 0.00 0.00 0.00 88 1015.4
20260505040018 56 131 0.0 0.0 0.00 0.00 0.00 88 1015.5
20260505034524 57 131 0.0 0.0 0.00 0.00 0.00 87 1015.8
20260505033022 57 131 0.0 0.0 0.00 0.00 0.00 85 1015.5
20260505031537 58 131 0.0 0.0 0.00 0.00 0.00 84 1015.9
20260505024517 59 131 0.0 0.0 0.00 0.00 0.00 81 1015.7
20260505023023 60 131 0.0 0.0 0.00 0.00 0.00 80 1015.4
20260505021523 60 131 0.0 0.0 0.00 0.00 0.00 78 1015.2
20260505014510 62 131 0.0 0.0 0.00 0.00 0.00 75 1015.4
20260505013011 63 131 0.0 0.0 0.00 0.00 0.00 72 1015.5
20260505011510 64 131 0.0 0.0 0.00 0.00 0.00 69 1015.6
20260505010009 66 131 0.0 0.0 0.00 0.00 0.00 67 1015.5
20260505004513 67 131 0.0 0.0 0.00 0.00 0.00 65 1015.6
20260505003016 68 134 0.0 0.0 0.00 0.00 0.00 64 1015.9
20260505001512 69 200 0.0 2.0 0.00 0.00 0.00 62 1015.5
20260505000013 70 111 0.0 4.0 0.00 0.00 0.00 60 1015.9
20260504234510 71 150 0.0 4.0 0.00 0.00 0.00 57 1015.7
20260504233018 72 13 2.0 4.0 0.00 0.00 0.00 56 1015.9
20260504231513 73 233 1.0 5.0 0.00 0.00 0.00 55 1015.9
20260504230016 74 136 1.0 4.0 0.00 0.00 0.00 51 1015.8
20260504223026 75 149 3.0 8.0 0.00 0.00 0.00 48 1015.9